This is the latest recevied weather packets stored in our database for station/object KG0HG. If no packets are shown the sender has not sent any weather packets the latest 10 day(s).
| Time | Temp. | Humidity | Pressure | Rain* | Wind** | Luminosity | Snow |
|---|---|---|---|---|---|---|---|
| 1778197048 | 20° C | 43% | 1011 hPa | 0 mm | - | 48 W/m² | - |
| 1778196746 | 20.56° C | 43% | 1011.1 hPa | 0 mm | - | 50 W/m² | - |
| 1778196443 | 20.56° C | 45% | 1011 hPa | 0 mm | - | 35 W/m² | - |
| 1778196140 | 20.56° C | 43% | 1010.9 hPa | 0 mm | - | 40 W/m² | - |
| 1778195836 | 20.56° C | 43% | 1011.1 hPa | 0 mm | - | 42 W/m² | - |
| 1778195533 | 20.56° C | 43% | 1010.7 hPa | 0 mm | - | 46 W/m² | - |
| 1778195230 | 20.56° C | 44% | 1011 hPa | 0 mm | - | 47 W/m² | - |
| 1778194928 | 20.56° C | 44% | 1011.1 hPa | 0 mm | - | 156 W/m² | - |
| 1778194626 | 20.56° C | 45% | 1011.1 hPa | 0 mm | - | 56 W/m² | - |
| 1778194324 | 20.56° C | 44% | 1011 hPa | 0 mm | - | 87 W/m² | - |
| 1778194019 | 20.56° C | 44% | 1011.3 hPa | 0 mm | - | 62 W/m² | - |
| 1778193716 | 20.56° C | 43% | 1011 hPa | 0 mm | - | 52 W/m² | - |
| 1778193412 | 20.56° C | 44% | 1011 hPa | 0 mm | - | 51 W/m² | - |
| 1778193109 | 20.56° C | 43% | 1011.2 hPa | 0 mm | - | 55 W/m² | - |
| 1778192806 | 20.56° C | 44% | 1011.3 hPa | 0 mm | - | 68 W/m² | - |
| 1778192502 | 20.56° C | 45% | 1011.3 hPa | 0 mm | - | 49 W/m² | - |
| 1778192199 | 20.56° C | 46% | 1011.3 hPa | 0 mm | - | 49 W/m² | - |
| 1778191895 | 20.56° C | 46% | 1011.3 hPa | 0 mm | - | 55 W/m² | - |
| 1778191592 | 20.56° C | 46% | 1011.2 hPa | 0 mm | - | 59 W/m² | - |
| 1778191291 | 20° C | 46% | 1011.4 hPa | 0 mm | - | 315 W/m² | - |
| 1778190986 | 20° C | 45% | 1011.3 hPa | 0 mm | - | 154 W/m² | - |
| 1778190684 | 20° C | 45% | 1011.4 hPa | 0 mm | - | 91 W/m² | - |
| 1778190381 | 19.44° C | 46% | 1011.2 hPa | 0 mm | - | 102 W/m² | - |
| 1778190077 | 20° C | 45% | 1011.7 hPa | 0 mm | - | 104 W/m² | - |
| 1778189773 | 20° C | 45% | 1011.6 hPa | 0 mm | - | 161 W/m² | - |
* Rain latest hour (hover to see other rain measurements)
** Current wind speed in m/s (hover to see current wind gust speed)